Wetbulb
55.03 55.73 56.82 57.91 58.45 59.58 60.67 61.02 61.71 61.23 61.49 62.42 62.51 62.34 62.04 61.73 60.98 58.27 54.61 59.26 62.27 65.10 63.35 60.59 58.30 58.03 54.20 51.49 50.32 48.80 43.69 40.88 42.88 44.41 46.06 49.05 48.79 49.74 51.75 52.10 53.09 54.91 53.49 54.68 60.58
54.82 54.91 55.87 56.82 57.83 58.67 59.91 60.66 60.95 61.41 61.72 61.80 62.05 61.78 61.54 61.29 57.59 54.23 60.38 64.22 64.64 64.19 58.58 57.41 55.52 56.04 51.68 50.23 49.17 45.51 42.75 43.65 45.62 46.17 47.04 48.52 48.79 50.61 50.97 50.89 50.18 52.29 55.68 58.16 60.01
53.49 54.34 55.17 55.78 56.73 58.05 58.96 60.11 60.47 60.84 61.50 61.59 61.56 61.44 61.09 60.13 50.50 51.36 63.06 64.83 64.76 62.72 59.53 58.22 57.40 54.16 48.92 48.71 47.56 44.47 42.65 45.59 45.48 46.62 48.73 48.68 47.42 48.18 49.89 47.35 51.68 53.48 55.96 57.82 57.81
53.12 53.40 54.46 54.66 55.25 57.03 58.13 58.75 59.65 60.28 61.25 61.33 61.38 61.04 60.40 57.60 43.62 56.60 63.94 63.98 63.87 60.07 57.15 55.10 54.91 50.46 46.92 44.92 48.23 43.95 45.52 46.11 47.90 47.93 47.78 47.81 48.35 46.42 48.42 49.64 51.52 54.82 57.88 58.04 57.85
53.40 53.00 53.32 54.57 53.80 55.28 57.35 58.33 58.95 59.66 60.43 61.04 61.14 60.65 56.59 51.13 48.78 59.54 61.72 62.67 60.31 57.90 54.48 52.60 51.58 50.13 46.87 46.34 47.29 45.35 46.46 47.71 47.40 47.89 47.22 48.44 45.61 45.31 47.06 47.67 52.22 56.97 57.95 57.50 58.01
52.66 53.00 53.04 53.54 53.55 53.78 56.20 57.43 58.08 59.30 59.94 60.72 60.84 59.80 52.38 44.13 54.46 58.03 60.14 58.71 59.20 56.34 54.35 54.01 51.98 52.17 49.22 48.39 45.00 45.43 46.75 46.90 47.30 46.45 46.80 46.07 45.27 47.19 47.02 49.63 51.74 56.15 56.33 56.90 57.30
51.90 52.16 53.05 52.98 53.52 53.90 55.23 56.88 57.34 58.37 59.29 60.15 60.29 55.17 49.59 47.09 54.76 54.59 57.71 57.03 58.61 58.01 53.67 55.02 54.56 51.29 49.87 47.19 48.22 46.78 42.85 44.69 45.17 45.55 45.08 47.21 43.09 44.82 47.47 47.90 50.49 52.90 53.91 55.36 57.03
52.99 52.66 51.86 52.75 53.38 53.62 54.66 56.12 57.39 57.23 58.39 59.58 59.60 49.99 42.51 52.13 53.14 53.46 55.93 55.26 58.53 59.54 58.31 57.61 56.17 52.36 50.51 49.66 46.45 42.54 41.99 38.20 43.21 45.62 45.67 45.64 38.53 45.40 46.95 46.60 48.26 48.37 48.96 51.11 52.93
52.68 52.54 52.10 52.81 52.79 52.92 53.73 55.38 56.46 57.04 57.95 58.72 53.59 48.54 42.09 53.91 48.62 52.20 53.17 52.67 56.23 57.55 57.54 58.24 54.25 48.88 48.90 42.45 39.06 39.38 34.01 35.90 40.86 45.29 44.38 43.40 40.07 44.79 45.46 45.60 46.22 46.06 46.49 47.29 47.67
52.76 52.56 52.02 51.77 52.52 52.75 52.91 54.34 55.98 56.55 55.92 55.10 52.76 44.79 45.97 44.37 48.15 50.37 51.91 54.67 53.37 54.55 53.76 52.42 48.78 43.45 41.78 39.30 31.74 34.47 35.09 37.45 38.36 40.83 42.25 40.65 41.44 44.69 44.27 43.32 44.07 44.09 44.80 44.87 45.33
52.75 52.51 51.67 51.81 51.56 51.64 51.14 51.39 47.42 46.98 50.76 46.30 45.83 45.59 45.07 48.20 50.82 47.83 52.40 52.55 52.58 50.92 44.81 49.53 43.77 39.03 41.60 43.23 40.07 38.25 35.66 34.76 37.37 41.41 39.11 38.93 39.80 43.42 43.51 43.20 43.66 44.42 44.37 43.87 45.12
52.82 52.20 51.57 51.48 50.82 50.91 49.55 46.80 46.05 48.17 43.19 48.45 48.09 47.61 49.20 48.39 43.77 48.17 52.97 46.62 46.65 42.43 46.29 44.77 38.37 41.45 43.08 43.50 41.96 38.46 35.18 33.73 38.82 40.57 38.58 37.74 37.75 40.99 42.20 41.80 43.37 44.24 44.62 45.40 45.08
52.93 52.80 51.95 51.67 51.12 47.39 43.76 46.57 50.27 50.82 40.68 44.50 46.34 46.30 47.02 47.63 42.84 45.88 48.92 46.58 43.51 41.83 42.70 38.30 39.57 43.81 42.93 40.18 39.46 37.17 36.57 34.87 35.71 39.12 38.20 35.39 34.78 36.40 40.98 41.45 43.03 44.24 46.45 46.81 47.66
52.88 52.63 51.90 51.40 44.29 43.30 41.55 49.36 49.85 49.46 33.16 36.47 42.42 44.84 47.01 46.28 41.79 48.30 49.83 45.69 43.15 39.41 40.90 40.48 42.83 41.70 40.02 38.25 39.99 36.09 40.33 39.18 37.83 35.38 30.57 33.88 25.76 31.26 34.06 37.70 40.59 42.67 44.25 45.94 46.53
52.78 52.73 51.49 49.79 40.32 39.96 43.45 48.90 49.92 45.78 18.70 36.62 41.73 49.15 46.24 42.71 43.28 43.48 50.11 44.56 40.07 40.44 39.36 34.57 38.67 39.47 38.69 39.46 41.90 36.04 41.11 39.72 38.05 34.47 30.47 29.83 28.91 29.43 33.08 33.18 37.29 39.79 42.68 43.79 43.81
52.48 52.03 50.77 44.54 41.43 42.64 47.25 47.86 45.54 30.59 21.82 35.78 41.26 41.08 40.69 41.63 41.77 45.95 46.15 46.34 43.56 39.93 39.11 36.15 39.32 40.40 39.90 41.80 43.45 42.32 38.76 36.83 34.82 32.77 24.54 30.17 28.74 25.42 30.76 34.72 36.63 38.89 40.40 41.38 41.45
52.20 51.50 46.92 44.16 37.34 45.04 44.48 42.50 28.82 22.32 32.29 33.74 35.55 40.09 38.84 38.52 40.29 40.67 41.34 40.02 35.21 32.42 32.13 35.45 36.31 38.22 39.87 38.15 40.22 39.62 34.97 26.57 24.39 21.52 21.99 28.51 28.13 31.94 35.06 38.14 38.04 39.46 40.56 40.81 39.89
51.76 50.33 47.30 43.31 45.41 42.76 39.91 33.77 21.61 23.72 28.90 35.55 37.94 38.18 35.34 37.55 38.32 39.15 37.87 36.44 39.26 33.32 30.63 29.71 23.85 36.47 39.51 37.70 36.31 36.92 35.44 27.33 20.72 22.52 22.27 28.96 25.95 30.62 36.51 38.80 38.31 38.56 38.62 39.02 40.05
51.03 46.11 43.36 42.36 44.48 42.08 31.44 23.10 15.52 22.92 31.52 34.50 36.11 33.47 33.45 36.82 36.55 36.36 36.42 35.99 38.88 37.06 30.49 28.52 28.27 36.64 38.53 39.54 40.15 36.29 33.86 36.39 28.32 18.38 20.24 24.87 27.52 33.00 35.17 36.15 37.40 37.37 37.69 38.91 39.46
44.77 42.15 41.80 43.91 43.59 39.42 24.19 23.78 19.99 34.10 36.83 35.54 29.32 31.01 26.53 33.02 32.20 34.21 34.06 36.53 36.84 39.86 38.03 34.09 25.24 33.88 37.11 39.78 39.21 37.98 39.21 31.13 28.02 17.03 13.41 22.01 23.40 27.05 32.53 34.43 34.71 36.50 36.02 38.14 38.82
40.66 33.55 42.83 43.67 44.39 35.11 15.98 13.33 27.95 32.17 36.89 35.01 31.49 32.10 31.71 30.52 33.22 33.55 34.26 35.40 38.99 38.62 39.94 37.74 33.39 31.03 36.04 34.43 34.29 34.93 34.33 35.75 34.58 29.61 21.71 17.42 22.56 30.29 32.71 34.36 34.39 34.72 36.70 37.34 37.74
37.11 31.72 43.66 42.56 28.99 27.54 22.86 15.88 30.99 32.36 35.38 35.83 34.03 33.83 32.88 33.64 32.75 32.10 32.95 35.65 38.12 39.83 35.71 37.46 34.76 27.35 30.32 35.19 36.98 37.42 34.32 36.76 30.67 23.83 24.93 24.52 28.79 33.91 34.16 33.82 34.57 35.43 37.50 36.87 36.78
32.55 35.07 42.90 38.29 16.77 20.08 22.58 26.77 28.26 29.74 31.23 32.67 31.18 32.71 32.83 31.49 29.74 32.34 34.72 36.51 40.43 39.67 37.40 38.93 33.89 27.60 27.18 31.24 34.27 32.54 34.75 35.54 34.50 30.05 28.42 24.45 27.65 36.37 35.22 34.50 35.27 35.02 38.09 37.86 38.22
35.16 29.92 32.62 32.67 20.01 20.93 18.38 18.16 21.07 29.69 31.26 33.17 32.92 32.81 30.42 27.52 29.49 26.79 30.78 35.17 36.99 37.46 40.51 41.38 34.47 29.13 24.45 27.09 32.92 31.27 33.29 35.91 34.61 29.39 29.57 29.51 31.56 35.64 34.03 34.86 34.76 36.49 37.20 37.06 37.71
31.31 29.01 28.32 24.05 20.23 22.30 23.91 22.54 17.86 19.49 29.36 31.51 29.23 30.85 29.87 24.70 25.64 24.77 29.63 32.50 36.89 39.33 37.52 38.33 30.93 32.61 32.51 30.43 30.84 31.70 33.38 34.43 33.10 33.79 30.02 32.25 30.99 36.01 38.61 37.82 37.72 39.30 38.61 38.03 38.53
27.31 28.64 23.28 12.58 25.30 24.19 23.59 20.50 23.93 23.90 26.68 25.47 24.47 28.31 30.75 24.75 26.65 23.62 27.66 29.81 29.48 34.97 34.50 33.88 31.02 32.63 30.88 33.38 33.06 31.85 32.70 32.97 34.17 34.29 34.25 34.40 33.35 40.28 41.50 39.44 36.43 38.06 37.24 37.23 38.52
33.85 31.29 27.21 27.27 19.82 21.49 22.49 23.27 25.08 27.17 28.26 29.24 28.41 26.99 26.72 28.43 30.24 29.88 30.83 31.06 30.72 30.73 29.91 30.24 28.91 22.74 13.47 29.01 30.70 27.65 31.16 32.71 33.46 35.42 34.49 31.00 35.91 40.26 39.08 39.39 37.58 36.60 37.46 37.98 38.25
MSLP
1015.55 1015.65 1015.47 1015.31 1015.08 1014.86 1014.80 1014.82 1014.99 1015.07 1014.96 1015.57 1015.38 1015.64 1015.89 1015.89 1016.22 1015.85 1015.23 1015.09 1014.97 1014.07 1013.76 1013.88 1013.46 1013.24 1012.64 1012.89 1013.17 1013.38 1014.10 1015.05 1014.98 1014.81 1014.56 1014.55 1014.70 1014.85 1014.75 1015.36 1015.80 1016.08 1016.30 1016.19 1016.47
1015.45 1015.54 1015.45 1015.19 1015.00 1014.83 1014.68 1014.79 1014.81 1014.89 1015.05 1015.65 1015.77 1015.38 1016.12 1015.95 1015.95 1015.51 1014.22 1014.28 1014.61 1014.83 1014.61 1014.27 1014.25 1013.82 1013.67 1013.60 1013.82 1013.95 1014.27 1014.37 1014.25 1014.20 1014.15 1014.44 1014.48 1014.67 1015.05 1015.57 1016.06 1016.22 1016.46 1016.56 1016.83
1015.49 1015.53 1015.54 1015.29 1015.18 1014.88 1014.69 1014.67 1014.84 1015.04 1015.49 1015.74 1015.71 1015.73 1015.68 1015.59 1016.18 1014.92 1014.18 1014.34 1014.66 1014.77 1015.02 1015.24 1015.57 1014.64 1014.25 1014.31 1014.47 1014.15 1014.27 1014.17 1014.11 1013.91 1013.93 1014.33 1014.65 1014.66 1015.05 1015.68 1015.55 1015.77 1016.37 1016.89 1017.13
1015.33 1015.35 1015.46 1015.27 1015.07 1014.96 1014.74 1014.67 1014.79 1014.93 1015.33 1015.49 1015.58 1015.68 1015.87 1015.85 1015.94 1014.49 1014.48 1014.05 1014.29 1014.82 1015.12 1015.13 1015.03 1014.49 1014.75 1014.86 1014.35 1014.33 1014.24 1014.27 1014.23 1014.02 1014.00 1014.34 1014.49 1014.75 1014.99 1014.85 1014.87 1015.22 1015.80 1016.58 1017.19
1015.17 1015.32 1015.29 1015.38 1015.14 1015.09 1014.84 1014.90 1014.78 1014.81 1015.05 1015.33 1015.47 1015.63 1015.87 1015.97 1015.34 1014.19 1014.35 1014.04 1014.68 1015.15 1015.25 1015.34 1015.46 1015.17 1014.80 1014.84 1014.37 1014.41 1014.52 1014.40 1014.50 1014.35 1014.31 1014.35 1014.75 1014.94 1014.90 1014.92 1014.88 1015.54 1016.28 1016.58 1016.91
1015.01 1015.22 1015.23 1015.30 1015.26 1015.23 1014.94 1014.72 1014.93 1014.79 1014.97 1015.25 1015.53 1015.67 1015.87 1015.75 1014.80 1014.55 1014.59 1014.69 1014.86 1015.23 1015.21 1015.40 1015.55 1015.53 1015.26 1015.04 1014.96 1014.99 1014.91 1014.92 1014.87 1014.72 1014.62 1014.67 1015.11 1015.04 1014.90 1015.20 1015.42 1015.88 1016.34 1016.68 1016.86
1014.76 1015.09 1015.19 1015.13 1015.13 1015.17 1015.12 1014.92 1014.90 1014.99 1014.90 1015.10 1015.53 1015.94 1016.20 1015.31 1014.93 1014.99 1014.76 1014.97 1014.86 1015.21 1015.34 1015.65 1015.60 1015.78 1015.86 1015.64 1015.51 1015.34 1015.60 1015.40 1015.33 1015.16 1015.07 1015.01 1015.63 1015.20 1015.04 1015.45 1015.87 1016.28 1016.59 1016.81 1016.66
1014.54 1014.85 1015.08 1015.05 1014.89 1015.10 1015.11 1015.05 1014.96 1015.05 1015.03 1015.13 1015.45 1016.05 1016.10 1015.51 1015.34 1015.17 1015.22 1015.36 1015.04 1015.42 1015.49 1015.64 1015.88 1016.08 1016.31 1016.36 1016.18 1016.34 1016.39 1016.33 1015.88 1015.64 1015.52 1015.61 1015.87 1015.18 1015.47 1015.76 1016.26 1016.53 1016.78 1016.86 1016.67
1014.37 1014.63 1014.87 1014.97 1014.92 1015.03 1015.19 1015.08 1014.99 1015.12 1015.13 1015.25 1015.86 1015.97 1015.91 1015.21 1015.35 1015.36 1015.35 1015.54 1015.50 1015.73 1015.70 1015.28 1016.23 1016.77 1016.89 1017.30 1017.53 1017.67 1017.48 1017.31 1016.69 1015.99 1016.10 1016.28 1016.49 1015.56 1015.74 1016.20 1016.53 1016.65 1016.80 1016.68 1016.55
1014.03 1014.41 1014.73 1014.92 1015.02 1015.20 1015.16 1015.07 1014.96 1015.11 1015.42 1015.25 1015.72 1016.37 1015.86 1015.29 1015.21 1015.38 1015.65 1015.76 1015.97 1015.96 1016.00 1015.99 1016.97 1017.50 1017.98 1018.03 1017.98 1018.15 1018.04 1017.73 1017.11 1016.64 1016.65 1016.81 1016.71 1016.03 1016.27 1016.67 1016.80 1016.79 1016.65 1016.67 1016.62
1013.71 1014.12 1014.59 1014.83 1014.96 1015.06 1015.38 1015.29 1015.60 1015.58 1015.03 1015.31 1015.41 1015.38 1015.15 1015.29 1015.12 1015.35 1015.58 1015.65 1016.00 1016.33 1016.64 1016.62 1017.59 1017.81 1018.16 1017.78 1017.91 1017.74 1017.87 1017.87 1017.55 1017.11 1017.14 1017.09 1017.16 1016.34 1016.30 1016.80 1016.82 1016.79 1016.53 1016.39 1015.98
1013.35 1013.83 1014.37 1014.72 1014.92 1015.14 1015.54 1015.39 1015.78 1015.77 1015.14 1015.22 1015.42 1015.47 1015.22 1015.16 1015.38 1015.69 1015.62 1016.15 1016.48 1016.95 1017.00 1017.33 1017.31 1017.76 1017.87 1018.12 1018.29 1018.36 1018.60 1018.59 1018.24 1017.78 1017.90 1017.67 1017.30 1016.66 1016.20 1016.27 1016.04 1015.94 1015.89 1015.53 1015.41
1012.97 1013.50 1014.16 1014.68 1014.94 1015.42 1015.74 1015.90 1015.80 1015.57 1015.36 1015.44 1015.36 1015.27 1015.22 1015.38 1015.56 1015.89 1016.09 1016.39 1016.75 1017.09 1016.85 1017.12 1017.31 1017.28 1018.00 1018.43 1018.53 1018.69 1019.07 1019.17 1019.05 1018.52 1018.33 1018.05 1016.75 1016.27 1015.33 1015.30 1015.35 1015.17 1014.84 1014.62 1014.31
1012.61 1013.23 1013.98 1014.75 1015.70 1015.71 1015.99 1015.91 1015.72 1015.77 1015.87 1015.47 1015.34 1014.96 1015.22 1015.48 1015.88 1015.86 1016.08 1016.48 1016.87 1017.17 1017.35 1017.49 1017.60 1017.44 1017.77 1018.24 1018.66 1019.03 1018.85 1019.24 1019.54 1019.77 1019.60 1018.92 1016.97 1016.06 1015.58 1015.18 1015.35 1014.95 1014.30 1013.75 1013.70
1012.24 1012.94 1013.93 1014.69 1015.40 1015.79 1015.84 1016.05 1016.19 1016.08 1016.40 1014.90 1015.19 1015.05 1014.97 1015.69 1015.93 1016.21 1016.22 1016.48 1016.95 1017.21 1017.34 1017.58 1017.71 1017.57 1017.78 1018.04 1018.60 1018.86 1018.72 1019.25 1019.77 1020.20 1020.43 1019.94 1019.82 1016.15 1015.75 1015.49 1015.01 1014.05 1013.79 1013.60 1013.62
1012.07 1012.88 1014.02 1015.17 1015.59 1015.64 1015.71 1015.99 1016.99 1017.64 1016.02 1015.20 1014.92 1014.99 1015.48 1015.77 1016.26 1016.46 1016.53 1016.64 1016.93 1017.27 1017.59 1017.85 1017.66 1017.52 1017.58 1017.67 1018.05 1018.49 1018.86 1019.79 1020.30 1021.11 1021.11 1020.44 1020.25 1016.30 1015.74 1014.90 1014.44 1013.80 1013.72 1013.94 1014.04
1011.97 1012.96 1013.98 1014.75 1015.45 1015.61 1015.74 1016.50 1017.48 1016.89 1016.79 1015.45 1014.86 1014.98 1015.44 1015.84 1016.60 1016.58 1016.82 1017.03 1017.16 1017.86 1018.14 1018.13 1017.77 1017.48 1017.41 1017.82 1018.00 1018.45 1019.11 1020.49 1021.75 1022.32 1021.22 1020.43 1020.22 1015.68 1015.47 1014.53 1014.31 1014.09 1013.77 1014.23 1014.26
1012.10 1013.23 1014.24 1014.89 1015.26 1015.57 1016.37 1017.82 1018.01 1017.99 1016.82 1015.65 1015.04 1015.32 1015.74 1016.09 1016.52 1016.81 1017.17 1017.06 1017.35 1017.57 1018.20 1018.30 1018.31 1017.61 1017.45 1017.57 1017.67 1018.23 1018.71 1019.68 1020.93 1021.93 1021.53 1020.92 1019.31 1016.30 1015.19 1014.39 1014.00 1014.27 1014.12 1014.32 1014.58
1012.71 1014.02 1014.87 1015.69 1015.49 1015.84 1017.29 1018.54 1018.64 1018.01 1017.08 1015.98 1015.89 1015.91 1016.11 1016.33 1016.51 1016.79 1017.14 1017.01 1016.79 1017.46 1017.72 1018.11 1018.19 1017.53 1017.28 1017.02 1017.18 1018.23 1018.30 1018.97 1020.52 1022.27 1022.14 1020.50 1018.55 1016.59 1015.22 1014.63 1014.03 1013.95 1014.42 1014.58 1014.66
1013.23 1014.63 1015.82 1016.15 1015.74 1016.66 1018.03 1019.04 1019.04 1018.39 1017.32 1016.77 1016.48 1016.40 1016.56 1016.70 1016.85 1017.13 1017.17 1016.51 1016.60 1016.73 1017.05 1017.56 1017.91 1017.39 1017.07 1017.09 1017.09 1017.07 1017.49 1019.01 1020.09 1021.34 1021.30 1019.66 1018.45 1016.49 1015.36 1014.56 1014.45 1014.29 1014.64 1014.65 1014.72
1014.15 1015.81 1016.81 1016.56 1016.24 1017.72 1019.44 1020.49 1019.70 1018.61 1018.08 1017.67 1017.13 1017.03 1017.26 1017.16 1017.42 1017.41 1017.19 1016.75 1016.30 1016.50 1016.89 1017.35 1017.89 1018.07 1017.50 1017.16 1016.92 1017.28 1017.36 1017.84 1018.47 1019.53 1019.67 1019.19 1017.01 1015.25 1014.90 1014.80 1014.78 1014.84 1014.89 1014.81 1014.80
1015.46 1016.32 1017.03 1017.03 1018.11 1019.54 1020.48 1020.62 1020.04 1019.20 1018.52 1018.18 1017.84 1017.78 1017.85 1018.00 1018.07 1018.00 1017.52 1017.21 1016.80 1016.39 1016.88 1016.98 1017.53 1017.72 1017.33 1016.96 1016.82 1016.75 1016.74 1017.08 1017.91 1019.07 1019.32 1018.67 1014.92 1014.07 1014.24 1014.40 1014.43 1014.76 1014.81 1014.72 1014.68
1015.86 1016.87 1017.43 1017.59 1019.85 1021.15 1021.56 1021.15 1020.56 1019.67 1018.88 1018.48 1018.40 1018.19 1018.65 1019.06 1019.16 1018.74 1018.30 1017.74 1017.19 1016.83 1016.74 1016.92 1017.18 1017.62 1017.63 1017.60 1017.09 1016.83 1016.92 1016.97 1017.51 1018.12 1017.93 1017.79 1014.04 1013.53 1013.87 1014.20 1014.38 1014.68 1014.40 1014.58 1014.72
1016.69 1018.19 1019.26 1019.68 1020.72 1021.08 1022.00 1021.92 1021.08 1020.12 1019.43 1018.85 1018.90 1018.76 1019.07 1019.51 1019.37 1019.33 1018.87 1018.46 1018.00 1017.89 1017.51 1017.33 1017.31 1017.08 1016.80 1016.36 1016.09 1016.60 1016.45 1016.47 1016.82 1017.15 1015.29 1016.08 1013.44 1013.63 1013.98 1014.03 1014.22 1014.29 1014.10 1014.24 1014.42
1017.27 1018.80 1019.25 1020.49 1021.51 1021.62 1021.64 1021.93 1021.51 1020.74 1020.05 1019.57 1019.38 1019.21 1019.07 1019.70 1019.71 1019.55 1019.22 1018.91 1018.74 1018.36 1018.06 1017.92 1017.96 1017.82 1017.58 1016.86 1016.47 1016.36 1016.06 1016.08 1015.99 1015.12 1015.79 1014.13 1014.08 1012.33 1012.74 1013.32 1013.48 1013.30 1013.72 1014.18 1013.98
1017.47 1018.71 1019.66 1020.39 1020.85 1021.50 1021.84 1021.79 1021.12 1020.79 1020.43 1020.01 1019.64 1019.15 1019.08 1019.28 1019.34 1019.72 1019.41 1019.05 1018.74 1018.36 1018.04 1018.57 1018.56 1018.25 1017.80 1017.50 1017.10 1016.64 1015.97 1015.40 1015.39 1014.95 1014.85 1013.84 1013.74 1011.46 1011.48 1012.23 1012.75 1013.14 1013.60 1013.54 1013.23
1017.82 1018.33 1018.83 1021.00 1021.50 1021.60 1021.36 1020.94 1020.67 1020.40 1020.08 1019.62 1019.29 1019.18 1019.43 1019.32 1019.27 1019.30 1019.48 1019.41 1019.22 1019.15 1018.93 1018.81 1018.72 1019.25 1018.65 1017.83 1017.33 1016.22 1013.72 1014.58 1014.11 1013.85 1013.97 1013.78 1011.96 1011.20 1010.86 1011.51 1012.15 1012.76 1012.92 1012.89 1013.05
Wind_Speed
8 8 9 12 11 11 11 8 8 11 6 8 4 3 2 2 3 3 4 5 6 15 13 10 5 8 4 5 5 1 5 3 6 7 5 5 4 1 2 6 2 1 4 0 10
11 8 9 11 13 13 10 9 8 5 5 7 7 3 3 2 2 5 7 2 6 8 7 9 11 8 5 6 4 5 4 6 4 4 5 5 3 8 4 4 1 1 2 4 8
11 10 9 8 10 12 10 10 10 10 8 7 5 4 1 2 2 7 6 1 3 3 1 1 7 3 5 2 5 2 3 1 1 1 5 6 3 2 8 3 6 9 7 7 5
10 9 11 6 6 11 9 7 9 10 8 7 5 3 1 1 8 3 4 4 3 1 0 2 6 3 2 3 3 2 2 1 1 3 3 7 5 2 3 4 3 8 10 9 9
9 8 9 9 5 8 8 8 4 8 9 7 6 4 2 2 6 4 5 7 3 1 2 2 2 1 2 2 3 3 4 4 2 5 4 5 3 2 5 3 4 8 6 10 8
8 9 8 9 5 6 8 6 7 6 9 10 9 5 1 4 3 7 2 3 4 1 2 2 1 2 1 2 3 1 2 3 4 2 2 4 1 2 1 2 4 8 9 8 8
8 10 8 8 6 5 7 5 7 8 8 11 11 4 2 9 3 7 3 2 2 0 4 1 2 4 2 2 2 1 2 3 2 1 1 4 3 7 2 2 5 7 6 7 10
9 8 9 7 6 2 6 4 6 7 6 10 11 4 5 1 1 3 2 1 2 1 3 3 1 2 1 2 5 3 5 3 3 2 1 5 8 11 5 4 7 7 7 8 10
11 9 9 7 6 2 5 7 4 9 2 8 4 4 5 1 5 3 1 2 2 1 3 6 3 1 2 4 3 6 4 3 6 8 3 4 8 7 5 6 9 8 8 9 8
12 10 9 8 7 6 5 6 5 5 6 5 4 3 1 4 3 5 2 2 2 3 3 5 4 2 3 3 6 5 4 5 7 2 3 4 8 9 3 5 9 8 9 8 8
14 12 11 10 8 4 2 3 4 4 4 3 6 1 3 0 3 2 3 3 3 3 4 5 4 9 9 9 1 2 2 4 2 2 1 6 7 15 5 4 9 10 9 9 12
15 15 14 12 8 4 3 2 3 3 3 5 6 2 3 1 4 1 5 4 4 5 5 4 10 7 5 3 3 1 3 3 5 2 1 5 9 11 8 7 9 9 10 12 7
15 15 14 12 8 3 2 1 2 4 3 3 4 3 3 3 3 7 8 4 3 5 8 4 3 6 7 3 4 1 4 3 4 5 1 5 10 7 8 4 7 9 13 10 15
16 17 16 12 5 3 1 4 5 2 4 4 6 5 3 5 0 3 5 3 2 8 5 4 2 4 4 4 6 5 6 5 2 2 5 3 10 4 3 8 5 10 13 16 13
16 18 18 12 6 5 4 8 4 3 4 6 7 1 7 5 6 2 1 3 6 6 6 6 5 5 4 4 7 5 5 7 5 3 3 1 4 5 2 5 11 12 14 12 8
16 20 20 6 3 2 7 7 5 4 7 6 6 9 9 3 3 3 3 3 2 3 4 3 1 4 6 4 10 5 5 5 5 3 5 8 6 5 5 6 6 6 6 8 9
17 23 11 4 5 4 4 5 2 1 3 4 4 10 14 7 6 5 6 6 5 5 4 0 3 1 2 5 2 2 6 2 2 1 8 3 6 13 9 10 6 10 9 7 7
20 22 8 3 6 6 4 4 2 2 4 4 4 10 10 7 6 6 9 9 7 3 3 6 6 8 5 6 6 6 6 5 7 5 4 1 9 7 5 9 9 7 8 7 8
23 3 4 1 5 4 6 3 6 5 4 1 7 5 5 4 5 5 6 6 9 8 6 5 5 3 5 5 9 4 11 5 5 2 2 5 7 9 6 10 10 9 7 8 8
6 7 3 1 3 4 6 3 3 2 4 4 3 1 4 6 4 11 7 5 5 11 2 4 2 1 2 1 1 6 7 4 1 2 4 6 5 7 7 9 6 9 8 8 7
7 4 2 3 4 4 4 5 2 1 3 4 1 4 3 4 5 6 2 3 4 9 11 5 1 2 5 6 9 3 4 4 4 5 5 2 7 8 7 6 7 6 6 7 8
4 4 2 3 5 2 2 3 3 1 2 3 2 4 4 3 3 5 6 2 6 7 11 7 4 5 7 0 2 6 5 9 6 3 3 2 17 5 8 6 6 2 7 6 5
4 3 3 4 4 2 3 3 2 3 1 2 2 2 3 2 1 1 2 5 2 2 6 6 5 6 1 2 3 5 5 6 4 3 15 7 14 6 4 3 5 5 8 4 5
4 4 3 4 1 7 5 1 2 3 3 2 3 3 4 1 1 3 1 3 7 2 9 5 4 6 10 5 5 6 8 16 12 9 18 14 27 16 4 7 4 8 9 8 8
3 1 1 4 2 4 4 3 2 1 3 4 4 0 4 3 3 1 1 2 5 5 4 5 4 3 11 2 2 1 5 14 18 22 9 19 16 21 17 11 12 13 7 7 11
4 5 3 2 4 6 2 6 9 4 6 4 4 5 4 5 5 5 1 2 3 2 3 2 1 3 3 5 8 13 13 10 12 17 18 24 22 25 21 7 5 8 6 10 13
1 3 5 2 2 5 5 6 8 5 4 4 7 4 3 7 5 4 4 4 4 3 2 2 4 3 6 6 7 7 24 18 19 15 9 15 25 23 22 15 7 6 9 11 9
Wind_Direction
282 292 317 315 315 286 244 222 214 189 238 242 199 180 176 319 305 321 261 239 320 343 345 312 332 331 18 10 16 96 65 146 180 160 175 171 134 197 73 111 99 7 157 187 133
263 289 298 316 324 308 256 210 201 207 196 203 215 135 199 228 239 215 250 303 336 344 0 7 328 342 2 356 2 73 90 184 178 188 163 156 143 158 127 125 22 58 28 101 130
274 266 276 300 329 324 277 209 194 180 192 202 182 177 230 45 254 241 161 213 340 355 253 210 252 281 27 330 340 357 117 188 83 166 140 137 117 111 124 226 206 190 174 165 161
261 270 269 299 337 335 305 254 212 188 182 184 179 162 193 0 216 38 52 47 53 19 132 313 299 354 48 321 343 67 77 46 44 15 107 141 137 95 193 215 274 199 161 162 176
257 266 260 271 329 332 326 296 249 208 182 173 176 170 108 180 266 4 14 63 45 129 159 174 247 219 214 295 5 39 4 47 54 68 85 105 85 158 249 325 60 130 152 182 189
254 252 252 247 281 317 324 286 311 262 192 172 166 135 77 218 338 341 340 0 102 15 61 141 269 287 141 195 150 174 27 5 359 24 76 103 100 77 277 107 107 159 190 201 207
224 240 242 242 238 293 320 283 276 302 216 177 160 121 84 230 48 351 353 329 52 242 111 323 35 52 341 156 298 138 114 25 334 324 130 130 321 239 178 139 159 198 214 225 231
214 217 236 231 257 293 319 273 225 285 218 173 144 100 226 194 200 359 335 334 88 359 145 74 323 92 45 322 22 89 49 98 275 146 338 113 254 261 213 165 220 217 229 241 249
228 203 218 217 240 274 325 291 224 213 203 174 123 152 237 42 151 172 51 171 95 20 337 96 64 47 36 111 44 6 153 170 302 209 121 147 240 281 206 197 238 237 240 241 261
214 203 208 205 212 225 301 304 192 175 95 77 45 99 202 214 180 143 139 79 135 118 51 75 71 77 24 118 196 179 180 221 206 193 183 157 249 258 232 175 241 259 262 269 259
206 201 201 206 201 219 334 95 119 233 183 153 161 59 131 319 90 131 142 88 98 108 163 155 152 201 203 198 178 146 101 189 278 283 206 221 234 261 256 219 253 249 253 244 248
205 197 196 194 195 195 87 240 57 341 127 98 163 170 72 177 94 100 129 128 149 176 149 146 224 208 191 183 206 170 161 231 290 297 182 283 254 256 262 226 219 244 248 247 245
196 191 187 179 172 102 113 75 9 347 96 179 160 148 150 143 148 181 149 152 145 167 182 188 174 178 161 165 158 180 196 173 229 328 290 320 269 231 259 214 237 245 249 249 238
189 186 174 157 86 156 181 148 350 340 45 214 172 228 121 145 150 164 168 131 170 181 126 241 199 127 140 185 143 226 184 164 161 54 250 39 289 266 286 276 225 258 251 250 250
183 181 160 144 143 143 168 111 23 24 167 173 151 69 146 174 126 226 270 59 165 180 133 214 175 161 171 183 158 222 155 172 167 195 344 213 295 272 6 294 269 240 252 263 261
179 172 138 99 60 143 128 118 70 162 233 175 134 164 139 136 92 94 146 38 139 103 30 194 295 157 198 153 176 161 98 58 48 95 271 188 185 212 189 206 268 262 258 274 296
178 152 135 126 166 156 109 73 154 193 339 149 143 163 174 165 143 151 172 165 154 152 194 162 237 4 114 97 78 143 122 56 6 349 237 325 195 265 304 276 226 276 297 312 289
152 134 126 99 134 129 64 87 158 262 233 236 128 150 176 137 193 152 159 195 210 96 114 185 304 166 179 172 168 188 162 160 199 206 265 34 235 260 231 282 281 270 291 307 316
131 81 74 196 126 73 79 117 186 242 265 310 98 158 137 149 150 164 182 213 190 178 180 148 263 195 176 170 148 181 219 159 96 28 52 231 287 289 295 277 300 300 337 325 320
100 86 33 228 106 69 75 161 114 302 359 345 107 75 146 166 137 185 168 227 218 178 172 175 0 290 212 84 259 166 159 128 63 241 265 261 258 236 295 291 319 312 332 311 310
66 86 42 294 67 41 135 214 286 0 50 4 83 116 128 124 167 178 195 296 194 182 184 122 238 268 132 198 179 153 202 215 164 168 192 275 255 213 228 244 270 296 302 295 314
88 96 19 1 68 1 75 184 261 54 95 20 66 74 78 64 194 184 208 261 354 168 190 198 177 197 210 243 291 235 228 205 190 248 247 229 260 186 210 225 190 221 297 293 296
73 66 6 69 113 48 337 4 321 356 12 148 112 67 73 103 140 110 315 343 38 48 172 170 208 215 284 350 337 209 206 210 131 95 233 229 261 9 176 231 216 272 272 268 320
96 116 48 52 142 133 127 250 335 341 320 359 93 76 107 38 115 177 215 274 6 15 298 33 216 213 220 198 139 177 202 213 202 213 242 225 262 260 259 255 234 258 260 274 276
33 126 157 180 283 105 91 121 77 356 339 356 16 284 150 138 335 346 36 159 199 233 229 164 232 226 254 301 52 155 212 215 216 235 223 251 243 262 257 246 239 246 268 289 278
119 133 18 80 128 105 176 212 182 208 161 252 162 200 210 178 177 186 55 23 259 336 123 106 40 307 262 253 269 265 257 243 238 242 243 251 264 270 275 250 234 256 253 251 258
30 56 96 82 78 117 213 184 201 154 225 201 200 132 187 248 237 220 204 240 246 323 341 177 141 48 261 6 270 234 233 231 237 237 210 237 248 261 275 273 258 231 234 253 270